Location: ??
(35.4838°N, 139.3538°E)
Time: 10:22:06
(UTC+00:00)

Daily predictions for brighter satellites

Satellite Brightness Start Highest point End
(mag) Time Altitude Azimuth Time Altitude Azimuth Time Altitude Azimuth
Cosmos 1862 4.2 12:06:07 41° NNE 12:06:07 41° NNE 12:08:52 10° NNE
Meteor 2-14 Rocket 4.3 12:08:47 49° S 12:10:35 82° E 12:16:45 10° N
Cosmos 1782 3.3 12:10:03 10° NNW 12:13:45 55° W 12:13:45 55° W
Cosmos 2333 Rocket 3.7 12:09:43 10° N 12:14:02 22° ENE 12:14:24 22° ENE
Cosmos 1980 Rocket 4.5 12:11:45 10° WNW 12:15:14 17° W 12:18:42 10° SW
Cosmos 220 Rocket 4.3 12:11:32 10° NNW 12:15:19 63° NNE 12:15:19 63° NNE
SPOT 1/Viking Rocket 4.1 12:15:17 42° SSW 12:16:36 53° W 12:21:42 10° NNW
ERS-1 Rocket 2.9 12:20:26 69° ENE 12:20:26 69° ENE 12:25:16 10° N
Cosmos 2322 Rocket 2.1 12:22:52 10° NNW 12:28:29 75° WSW 12:28:50 72° SW
Cosmos 2056 Rocket 3.5 12:29:39 10° NNW 12:34:37 78° N 12:34:37 78° N
Meteor 1-10 Rocket 4.2 12:29:44 10° N 12:34:50 66° NE 12:34:50 66° NE
Cosmos 2266 Rocket 3.8 12:37:14 72° E 12:37:14 72° E 12:43:18 10° N
Spot 2 Rocket 4.1 12:42:07 47° WSW 12:42:15 47° W 12:47:10 10° NNW
Cosmos 1553 Rocket 4.0 12:36:22 10° NNW 12:42:24 68° W 12:43:07 62° SW
Cosmos 2219 Rocket 3.3 12:41:31 10° N 12:45:55 32° NE 12:45:55 32° NE
NOSS 3-1 (C) 4.5 12:43:08 10° NNW 12:50:46 55° NE 12:52:30 48° E
SL-16 R/B 3.5 12:53:51 10° NW 12:58:40 29° WSW 12:58:58 29° WSW
Terra 2.9 13:04:33 43° NW 13:04:33 43° NW 13:07:57 10° NNW
ATLAS 5 CENTAUR R/B 3.8 13:00:30 10° N 13:05:23 27° NE 13:05:37 27° NE
Cosmos 1655 Rocket 4.5 13:09:39 51° WSW 13:10:21 54° W 13:16:36 10° N
COSMOS 2428 3.7 13:07:14 10° N 13:11:30 39° NNE 13:11:30 39° NNE
S3M 4.4 13:08:06 10° NNW 13:14:20 57° W 13:14:22 57° W
USA 267 3.2 13:12:04 10° NE 13:18:29 82° NNW 13:18:29 82° NNW
NOSS 3-1 (A) 4.4 13:19:21 10° NNW 13:27:02 57° NE 13:27:56 55° ENE
Cosmos 2360 Rocket 3.7 13:33:18 10° NW 13:36:53 28° WNW 13:36:53 28° WNW
COSMOS 2455 4.5 13:42:41 23° W 13:44:49 29° NW 13:49:59 10° N
Cosmos 2333 Rocket 3.6 13:53:08 10° NW 13:56:24 32° NW 13:56:24 32° NW
Cosmos 2297 Rocket 3.7 14:03:13 30° NNE 14:03:13 30° NNE 14:05:58 10° NNE
Lacrosse 5 4.0 14:10:04 22° NNE 14:10:04 22° NNE 14:11:57 10° NNE
Cosmos 2237 Rocket 3.6 14:06:57 10° N 14:10:29 35° NNE 14:10:29 35° NNE
Cosmos 2227 Rocket 3.8 14:15:32 28° NNE 14:15:32 28° NNE 14:18:06 10° NNE
Cosmos 2219 Rocket 4.2 14:25:33 10° NW 14:27:37 20° WNW 14:27:37 20° WNW
SL-16 R/B 3.9 14:36:46 10° N 14:40:27 26° NE 14:40:27 26° NE
ATLAS 5 CENTAUR R/B 3.9 14:44:23 10° NW 14:47:07 28° NW 14:47:07 28° NW
CZ-4C R/B 4.2 15:10:02 10° NNW 15:16:51 37° NE 15:21:06 23° E
CZ-2D R/B 4.2 15:16:36 10° NE 15:18:58 19° ENE 15:18:58 19° ENE
USA 234 3.9 15:33:42 47° NW 15:33:42 47° NW 15:38:09 10° NW
Cosmos 2344 3.8 15:35:05 55° E 15:35:05 55° E 15:41:18 10° NE
Cosmos 2297 Rocket 4.5 15:45:00 15° NW 15:45:00 15° NW 15:48:01 10° NNW
SL-16 R/B 3.5 15:54:52 39° E 15:55:21 40° ENE 16:01:03 10° N
Cosmos 2227 Rocket 4.4 15:57:19 16° NW 15:57:19 16° NW 16:00:23 10° NNW
Resurs 1-4 Rocket 3.4 15:52:32 10° NNE 15:55:56 37° NE 15:55:56 37° NE
ADEOS Rocket 4.2 15:57:22 29° ENE 15:57:48 29° ENE 16:02:28 10° N
Cosmos 2263 Rocket 3.0 16:10:49 47° N 16:10:49 47° N 16:14:57 10° NNE
ATLAS CENTAUR R/B 4.1 16:12:37 16° NNE 16:12:37 16° NNE 16:13:32 10° NNE
ADEOS II 3.2 16:18:04 10° NNE 16:22:12 38° ENE 16:22:12 38° ENE
SL-16 R/B 4.2 16:20:38 10° NW 16:22:16 18° NW 16:22:16 18° NW
Nadezhda 3 Rocket 4.1 16:33:45 10° N 16:39:20 65° NW 16:39:20 65° NW
Cosmos 2341 Rocket 3.9 16:43:14 82° E 16:43:14 82° E 16:49:26 10° N
Cosmos 962 Rocket 4.4 16:44:54 83° NW 16:44:54 83° NW 16:51:09 10° N
Helios 1B rocket 4.1 16:44:11 10° N 16:46:24 31° N 16:46:24 31° N
DNEPR-1 R/B 4.5 16:57:07 53° ESE 16:57:07 53° ESE 17:01:31 10° NE
Cosmos 1943 3.2 16:52:42 10° NNW 16:57:51 73° NW 16:57:51 73° NW
IDEFIX/ARIANE 42P 3.0 16:55:04 10° NNE 17:00:07 51° E 17:00:26 50° ESE
SL-19 R/B 4.4 16:54:32 10° N 17:00:48 78° WNW 17:01:14 74° WSW
CZ-2D R/B 3.1 16:55:59 10° N 17:00:17 37° NW 17:00:17 37° NW
NPP 4.2 16:56:30 10° N 17:01:00 45° NW 17:01:00 45° NW
Cosmos 1975 Rocket 3.8 17:00:25 10° N 17:04:17 49° ENE 17:04:17 49° ENE
Cosmos 1844 4.0 17:04:42 51° SE 17:05:11 53° ESE 17:10:35 10° NNE
CZ-4C R/B 3.1 16:58:13 10° NW 17:05:46 55° WSW 17:06:08 54° SW
Cosmos 1626 3.8 17:05:06 10° NNE 17:07:54 32° ENE 17:07:54 32° ENE
IRS-1D 3.3 17:13:22 10° N 17:18:24 79° WNW 17:18:24 79° WNW
Cosmos 1844 Rocket 2.5 17:18:57 73° SSW 17:19:32 90° W 17:25:14 10° NNE
X-37B 3.2 17:21:46 18° E 17:21:46 18° E 17:22:51 10° ENE
Meteor 1-12 Rocket 4.1 17:21:40 68° WSW 17:22:09 72° W 17:27:54 10° N
Cosmos 1959 Rocket 4.4 17:24:27 60° SW 17:25:28 71° W 17:31:41 10° N
Cosmos 864 Rocket 4.4 17:24:34 59° SW 17:25:44 74° W 17:32:02 10° N
Cosmos 1340 4.4 17:24:52 10° NNW 17:26:37 25° NNW 17:26:37 25° NNW
Cosmos 1741 Rocket 3.8 17:28:23 72° SW 17:28:56 83° WNW 17:34:14 10° NNE
Cosmos 1733 3.8 17:33:16 48° NNW 17:33:16 48° NNW 17:36:11 10° N
Cosmos 1400 Rocket 3.7 17:33:37 40° NNW 17:33:37 40° NNW 17:36:27 10° N
SL-8 Rocket 4.3 17:34:49 44° W 17:35:31 46° W 17:41:25 10° N
Resurs 1-4 Rocket 3.9 17:33:43 10° NNW 17:37:00 17° WNW 17:37:00 17° WNW
Cosmos 1867 3.5 17:36:08 60° WSW 17:37:03 75° WNW 17:42:32 10° NNE
CZ-3 Stage 3 3.2 17:38:14 16° ESE 17:38:14 16° ESE 17:40:04 10° ESE
SL-16 R/B 3.6 17:39:58 27° W 17:39:58 27° W 17:44:11 10° NW
Cosmos 1805 4.2 17:40:31 37° NW 17:40:31 37° NW 17:43:19 10° N
CZ-4B R/B 4.3 17:36:18 10° NNE 17:40:50 42° E 17:43:06 25° SSE
Cosmos 2366 rocket 4.3 17:41:49 44° WSW 17:43:09 51° W 17:49:19 10° N
ADEOS Rocket 3.8 17:44:19 27° WNW 17:44:19 27° WNW 17:48:01 10° NW
Cosmos 1674 4.4 17:42:42 10° NNW 17:44:28 23° NW 17:44:28 23° NW
IRS-P3 4.1 17:42:21 10° NNE 17:47:43 82° ESE 17:49:51 38° S
Cosmos 1315 Rocket 3.1 17:49:15 46° SSE 17:50:13 64° E 17:54:13 10° NNE
CZ-2C R/B 3.6 17:48:56 10° NNE 17:53:11 35° E 17:56:50 13° SSE
FALCON 9 DEB 4.5 17:53:48 26° ESE 17:53:48 26° ESE 17:56:01 10° ENE
CBERS-1 4.4 17:49:08 10° N 17:53:59 45° WNW 17:54:56 40° WSW
Milstar 3 3.1 17:51:38 35° SW 17:54:01 47° S 18:00:17 10° ESE
Cosmos 468 Rocket 4.0 17:54:04 10° NNW 17:59:13 57° WSW 18:01:14 35° SSW
Cosmos 1726 2.6 17:58:11 38° SSE 17:59:19 57° E 18:02:56 10° NNE
MSX 3.9 17:56:17 10° N 18:01:54 59° WNW 18:04:13 35° SW
ADEOS II 3.5 17:58:29 10° NNW 18:02:23 22° WNW 18:03:07 21° WNW
Cosmos 1818 3.6 17:58:24 10° NW 18:03:45 57° WSW 18:09:03 10° SSE
Meteor 1-24 Rocket 4.1 17:59:48 10° N 18:05:35 65° E 18:11:08 10° SSE
CZ-4C R/B 3.4 18:04:39 38° S 18:06:08 67° W 18:10:27 10° NNW
ERS-1 4.4 18:06:49 10° N 18:11:46 74° WNW 18:14:17 29° SSW
Okean 2 Rocket 3.6 18:12:49 36° WSW 18:13:49 41° W 18:18:07 10° N
Cosmos 1934 Rocket 4.3 18:07:52 10° S 18:13:56 65° E 18:20:07 10° NNE
Cosmos 1184 Rocket 3.5 18:11:38 10° N 18:14:46 52° E 18:17:33 12° SSE
SL-14 R/B 3.6 18:14:04 10° NNW 18:17:49 44° W 18:18:38 38° SW
Cosmos 1470 2.6 18:17:18 32° SSW 18:19:01 79° W 18:22:55 10° N
FALCON 9 DEB 2.6 18:19:29 63° WSW 18:19:53 81° NW 18:22:53 10° NE
Cosmos 1346 Rocket 2.8 18:16:22 10° NNW 18:20:11 54° W 18:21:44 31° SSW
Cosmos 1536 Rocket 3.4 18:16:59 10° N 18:21:23 77° W 18:25:20 13° S
Cosmos 1727 Rocket 4.3 18:19:06 10° NNW 18:25:03 46° W 18:29:39 17° SSW
Cosmos 1953 4.5 18:22:45 10° SSE 18:26:06 26° E 18:29:26 10° NE
SL-08 R/B 3.3 18:22:03 10° S 18:26:59 79° WSW 18:31:57 10° NNW
ARIANE 5 R/B 2.8 18:22:42 10° N 18:27:43 50° WNW 18:30:47 23° SW
Cosmos 841 Rocket 3.4 18:24:58 10° NNW 18:30:12 68° WSW 18:35:24 10° S
CZ-2D R/B 3.6 18:26:56 10° N 18:30:55 55° WNW 18:33:15 24° SW
Cosmos 1441 Rocket 4.3 18:28:00 10° N 18:31:50 47° E 18:35:39 10° SSE
Cosmos 2151 Rocket 4.5 18:33:05 24° WSW 18:34:36 30° WNW 18:38:31 10° NNW
Cosmos 1484 Rocket 4.4 18:32:46 10° NNE 18:36:29 35° E 18:40:08 10° SSE
IDEFIX/ARIANE 42P 4.2 18:35:56 10° NNW 18:39:15 17° WNW 18:41:13 14° W
PAYLOAD A 4.1 18:34:39 10° N 18:39:58 68° WNW 18:44:35 13° SSW
Cosmos 1758 3.2 18:37:15 15° SSW 18:40:24 74° W 18:44:24 10° N
Meteor 2-5 Rocket 4.1 18:36:34 10° NNW 18:42:08 46° W 18:47:34 10° SSW
Cosmos 1814 Rocket 4.0 18:37:10 10° NNW 18:42:27 83° WSW 18:47:45 10° SSE
Cosmos 2208 Rocket 4.1 18:41:56 10° NNW 18:47:10 83° ENE 18:52:19 10° SSE
PSLV R/B 3.9 18:43:02 10° NNE 18:47:15 63° E 18:51:25 10° S
NOSS 3-4 (A) 4.3 18:41:15 10° NW 18:48:06 42° WSW 18:55:33 10° S
FALCON 9 DEB 3.6 18:46:41 22° W 18:48:10 38° NW 18:51:01 10° NNE
NOSS 3-4 (C) 4.3 18:41:21 10° NW 18:48:12 43° WSW 18:55:41 10° S
GPS 2-04 Rocket1 2.9 18:46:53 20° WSW 18:49:37 59° SSE 18:53:38 10° E
Spot 4 Rocket 4.4 18:50:20 10° N 18:55:17 47° WNW 19:00:06 10° SW
X-37B 2.1 18:54:02 12° W 18:56:32 29° NNW 18:59:24 10° NE
ATLAS 2AS CENTAUR R/B 2.6 18:50:33 10° NW 18:57:36 70° WSW 19:04:04 10° SSE
Cosmos 540 Rocket 4.3 18:53:49 10° NW 18:58:10 28° W 19:02:31 10° SSW
Okean 1 Rocket 3.8 18:55:42 14° SW 18:59:06 35° WNW 19:03:11 10° NNW
Cosmos 2123 Rocket 4.0 18:54:10 10° NNW 19:00:19 69° W 19:06:25 10° S
FENGYUN 3A 3.7 18:57:37 10° N 19:02:58 62° WNW 19:08:15 10° SSW
ALOS 2.4 19:03:29 10° N 19:08:02 55° WNW 19:12:34 10° SSW
Chunghua 1 4.5 19:04:46 11° W 19:08:20 81° S 19:12:04 10° E
Cosmos 2278 Rocket 2.3 19:05:21 10° SSW 19:10:57 67° WNW 19:16:37 10° NNE
Cosmos 44 Rocket 3.6 19:09:31 10° NW 19:14:18 43° WSW 19:18:55 10° S
SL-19 R/B 4.4 19:10:22 10° S 19:16:00 75° WSW 19:22:02 10° NNW
FALCON 9 DEB 4.2 19:13:50 10° W 19:16:27 27° NW 19:19:05 10° NNE
Cosmos 405 2.9 19:13:03 10° S 19:16:29 90° WNW 19:19:57 10° N
CZ-3B R/B 4.2 19:05:51 10° W 19:17:36 36° SSW 19:23:38 10° SE
Cosmos 1908 3.4 19:20:15 10° SSW 19:23:58 53° W 19:27:43 10° N
Meteor 1-21 Rocket 4.3 19:20:23 10° N 19:26:07 90° NE 19:31:44 10° S
CZ-3 R/B 3.4 19:11:03 10° WSW 19:38:19 58° S 19:45:25 10° ESE
